CAPE
0 0 0 0 0 0 0 0 0 0 0 0 0 4 24 0 83 56 774 1075 1584 1360 1141 607 603 902 1222 1016 752 480 254 331 176 37 0 77 44 392 754 446 410 456 633 781 718 769 564 265 32
0 0 0 0 0 0 0 0 0 0 0 0 0 0 0 0 374 733 784 1225 2187 1505 898 823 584 669 931 952 847 528 323 398 143 40 21 144 172 489 702 624 665 535 554 676 591 467 353 167 2
0 0 0 0 0 0 0 0 0 0 0 0 0 0 0 281 294 1231 1098 1791 2445 1924 991 1077 706 708 799 804 823 575 439 368 89 77 77 123 199 439 707 734 823 675 397 182 87 20 1 0 0
0 0 0 0 0 0 0 0 0 0 0 0 0 0 0 331 620 1277 1232 2154 2597 2129 1568 1230 832 717 877 951 793 654 571 324 102 57 86 96 127 410 683 767 800 573 329 94 0 0 0 0 0
0 0 0 0 0 0 0 0 0 0 0 0 0 0 0 146 283 880 1034 1787 2618 2317 1987 1339 848 693 813 857 789 580 499 236 79 60 52 141 152 374 669 741 607 420 226 118 0 0 0 0 0
0 0 0 0 0 0 0 0 0 0 0 0 0 0 28 560 462 375 618 1322 2452 2319 2114 1471 853 939 829 890 903 610 435 179 100 119 112 71 67 196 426 433 370 379 341 186 4 0 0 0 0
0 0 0 0 0 0 0 0 0 0 0 0 0 0 112 468 691 762 882 1263 2362 2277 2319 1502 958 1229 1067 939 859 730 542 282 276 208 147 89 60 84 141 251 243 316 243 135 13 0 0 0 0
0 0 0 0 0 0 0 0 0 0 0 0 0 0 2 331 689 897 1154 1643 2294 2300 2545 1258 947 1006 856 907 950 805 655 535 467 258 150 119 75 72 94 129 152 259 221 122 27 0 0 0 0
0 0 0 0 0 0 0 0 0 0 0 0 0 0 86 311 435 841 1295 1776 2141 2268 2199 1174 798 408 201 743 1073 693 747 598 469 324 149 39 11 14 43 1 134 17 60 52 1 0 0 0 0
0 0 0 0 0 0 0 0 0 0 0 0 0 0 0 102 150 832 1197 1647 2069 2179 2043 1312 727 247 81 180 569 486 513 365 155 140 29 0 0 0 43 40 28 67 7 0 0 0 0 0 0
0 0 0 0 0 0 0 0 0 0 0 0 0 0 0 5 1 49 791 1209 1871 2122 2072 1547 945 373 69 253 82 107 84 38 34 26 0 0 12 0 76 69 68 22 0 0 0 0 0 0 0
0 0 0 0 0 0 0 0 0 0 0 0 0 0 0 0 0 0 61 848 1583 2128 2204 1757 1392 826 505 334 13 168 52 46 39 56 0 0 46 1 16 479 104 0 0 0 0 1 13 28 13
0 0 0 0 0 0 0 0 0 0 0 0 0 0 0 0 0 0 0 271 1417 2184 2229 1898 1681 1230 1424 581 237 351 193 130 304 244 3 48 60 115 63 11 47 0 0 0 0 2 27 16 65
0 0 0 0 0 0 0 0 0 0 0 0 0 0 0 0 0 0 0 74 394 2205 2267 1950 1859 1504 1705 1134 542 772 503 465 608 586 94 441 151 199 29 45 0 31 0 3 275 280 111 154 608
0 0 0 0 0 0 0 0 0 0 0 0 0 0 0 0 0 0 0 0 79 2475 1825 1359 2080 1928 1771 1666 946 1340 1138 779 855 913 565 478 293 93 211 4 1 0 0 67 628 463 385 528 1248
0 0 0 0 0 0 0 0 0 0 0 0 0 0 0 0 0 0 0 0 0 763 3283 2546 2564 2287 2121 2727 1793 1447 1180 985 840 1017 704 550 161 226 47 35 0 0 2 556 712 1249 1187 995 632
0 0 0 0 0 0 0 0 0 0 0 0 0 0 0 0 0 0 0 0 0 23 3563 3105 2816 2465 2199 2718 1955 1711 1295 1243 956 1150 1045 734 248 424 78 84 62 30 936 1181 1228 1053 752 396 72
12 24 19 10 0 9 0 0 0 0 0 0 0 0 0 0 0 0 0 0 0 351 3527 3400 3063 2705 2197 2371 2284 1968 1364 1517 1052 1051 1150 837 555 384 314 462 1742 1408 954 785 700 517 52 1 3
47 104 69 29 9 4 0 0 0 0 0 0 0 0 0 0 0 0 0 0 0 0 3454 3067 2946 2756 2352 2164 2175 2201 1399 1480 903 1372 1189 972 805 636 307 680 1521 1053 836 558 417 170 43 0 0
48 33 21 26 10 42 16 7 3 0 0 0 0 0 0 0 0 0 0 0 0 0 3109 2811 2444 2531 2454 2410 2320 2166 1314 1422 1152 1539 1574 1210 1150 1098 890 448 962 561 418 169 68 35 0 0 5
36 20 61 20 46 32 37 18 48 13 0 0 0 0 0 0 0 0 0 0 0 0 1884 2986 2866 2564 2546 2379 2248 2065 1598 1430 1750 1586 1520 1511 1307 1128 1048 973 615 401 231 35 0 0 2 0 38
25 50 35 28 52 9 126 6 32 27 9 0 0 0 0 0 0 0 0 0 0 0 2548 3230 3172 2729 2670 2272 1819 1869 1809 1499 1859 1537 1479 1339 1671 1089 581 403 233 54 0 0 0 14 62 69 50
22 36 38 30 52 80 27 122 1 43 26 0 0 0 0 0 0 0 0 0 0 1691 3148 2991 3050 2627 2501 1950 1833 1742 1713 1784 1667 2200 2032 1168 720 393 100 156 42 1 16 37 8 0 1 0 0
38 41 41 36 49 18 83 72 0 10 7 6 0 0 0 0 0 0 0 0 0 3033 3236 3420 3051 2558 2489 1964 1579 1794 1804 2260 2232 2153 1514 757 261 105 24 7 76 3 0 0 0 0 0 0 0
26 22 4 15 17 0 87 32 1 4 0 0 1 1 0 0 0 0 0 0 60 3192 3109 3027 3028 2363 1967 1557 1458 1642 1553 1611 1919 1654 1234 523 243 237 178 83 10 0 0 0 0 0 0 0 0
20 14 16 5 12 4 0 2 0 8 15 0 0 0 2 0 0 0 0 0 2138 3278 3018 2560 2859 2262 1604 1873 1959 2015 1775 2156 1477 1881 980 400 260 27 0 0 0 0 0 0 0 0 0 0 0
19 4 40 20 6 43 57 3 48 65 46 5 0 3 3 0 0 0 0 0 2572 3321 2775 2687 2564 2170 1907 2494 2538 2085 1390 1842 1506 581 396 167 6 0 0 0 0 0 0 0 0 0 0 0 0
1 2 5 46 1 1 18 25 7 48 16 0 0 0 0 0 0 0 0 4 2764 2811 2666 2511 2261 2089 2354 2293 1934 1292 1133 752 399 154 15 3 0 0 0 0 0 0 0 0 0 0 0 0 0
0 14 12 30 23 5 23 3 124 86 11 66 0 0 24 2 0 0 0 503 2976 2905 2364 2109 2017 2221 2256 1700 1233 721 383 208 81 3 0 0 0 0 0 0 0 0 0 0 0 0 0 0 0
1 12 47 20 20 24 45 95 4 166 165 27 0 0 8 0 0 0 85 2764 2477 2240 1990 1850 1791 1964 1755 1447 795 374 133 65 9 0 0 0 0 0 0 0 0 0 0 0 0 0 0 0 0
CIN
0 0 0 0 0 0 0 0 0 0 0 0 0 -2 -36 0 -7 -86 -51 -105 -197 -357 -426 -522 -478 -385 -304 -327 -342 -410 -504 -438 -519 -623 0 -542 -569 -286 -138 -214 -198 -157 -102 -65 -76 -63 -99 -182 -301
0 0 0 0 0 0 0 0 0 0 0 0 0 0 0 0 -35 -54 -113 -100 -201 -353 -452 -464 -489 -432 -344 -331 -326 -384 -444 -378 -530 -610 -610 -460 -415 -213 -136 -145 -120 -126 -109 -89 -99 -121 -147 -218 -60
0 0 0 0 0 0 0 0 0 0 0 0 0 0 0 -11 -20 -56 -158 -102 -241 -316 -427 -398 -453 -428 -366 -347 -320 -348 -357 -367 -544 -537 -525 -443 -357 -213 -112 -92 -76 -90 -148 -227 -267 -77 -91 0 0
0 0 0 0 0 0 0 0 0 0 0 0 0 0 0 -54 -20 -98 -127 -126 -233 -300 -328 -393 -440 -424 -345 -314 -315 -299 -281 -345 -484 -510 -453 -420 -389 -214 -92 -68 -57 -112 -171 -274 0 0 0 0 0
0 0 0 0 0 0 0 0 0 0 0 0 0 0 0 -56 -92 -95 -141 -135 -202 -272 -293 -374 -424 -409 -342 -312 -296 -299 -280 -359 -446 -448 -442 -358 -326 -216 -104 -71 -82 -144 -211 -245 -36 0 0 0 0
0 0 0 0 0 0 0 0 0 0 0 0 0 0 -12 -73 -86 -79 -135 -105 -118 -207 -278 -345 -419 -350 -325 -281 -260 -280 -281 -360 -396 -389 -378 -399 -387 -276 -191 -142 -144 -136 -164 -215 -129 0 0 0 0
0 0 0 0 0 0 0 0 0 0 0 0 0 0 -17 -54 -69 -68 -110 -95 -85 -146 -230 -342 -391 -304 -292 -283 -254 -252 -261 -325 -308 -327 -344 -365 -351 -324 -279 -211 -205 -134 -187 -234 -268 0 0 0 0
0 0 0 0 0 0 0 0 0 0 0 0 0 0 -1 -35 -42 -59 -82 -61 -55 -84 -160 -367 -374 -341 -322 -292 -255 -246 -223 -244 -251 -315 -355 -348 -340 -322 -294 -253 -230 -171 -194 -229 -301 0 0 0 0
0 0 0 0 0 0 0 0 0 0 0 0 0 0 -13 -63 -47 -35 -58 -37 -53 -35 -165 -341 -395 -452 -440 -326 -258 -291 -206 -229 -265 -308 -366 -401 -470 -296 -320 -69 -216 -307 -279 -292 -97 0 0 0 0
0 0 0 0 0 0 0 0 0 0 0 0 0 0 -4 -38 -26 -31 -37 -34 -34 -49 -154 -275 -372 -463 -503 -440 -393 -353 -299 -309 -375 -367 -513 0 0 0 -295 -300 -302 -285 -390 0 0 0 0 0 0
0 0 0 0 0 0 0 0 0 0 0 0 0 0 0 -16 -5 -13 -40 -32 -3 -30 -107 -230 -311 -392 -451 -393 -542 -472 -489 -496 -492 -482 0 0 -362 0 -247 -270 -285 -355 0 0 0 0 0 0 0
0 0 0 0 0 0 0 0 0 0 0 0 0 0 0 0 0 0 -21 -9 -2 -2 -21 -171 -236 -282 -292 -362 -536 -417 -509 -476 -454 -418 0 0 -309 -105 -327 -140 -226 0 0 0 0 -27 -251 -211 -215
0 0 0 0 0 0 0 0 0 0 0 0 0 0 0 0 0 0 0 -8 -9 -10 -14 -126 -209 -191 -115 -258 -358 -315 -378 -396 -288 -303 -204 -361 -304 -242 -242 -256 -202 0 0 0 0 -93 -177 -159 -117
0 0 0 0 0 0 0 0 0 0 0 0 0 0 0 0 0 0 0 -43 -7 -18 -21 -104 -134 -198 -67 -178 -245 -184 -234 -241 -191 -190 -336 -189 -252 -205 -263 -243 0 -206 0 -21 -102 -90 -118 -71 -15
0 0 0 0 0 0 0 0 0 0 0 0 0 0 0 0 0 0 0 0 -27 -20 -110 -52 -133 -121 -56 -98 -151 -68 -91 -144 -113 -100 -163 -160 -203 -255 -199 -90 -18 0 0 -155 -29 -30 -32 -20 -13
0 0 0 0 0 0 0 0 0 0 0 0 0 0 0 0 0 0 0 0 0 -25 -33 -58 -74 -72 -45 -6 -34 -38 -64 -84 -101 -87 -138 -163 -268 -233 -298 -214 0 0 -12 -70 -41 -12 -8 -13 -21
0 0 0 0 0 0 0 0 0 0 0 0 0 0 0 0 0 0 0 0 0 -30 -42 -67 -84 -75 -46 -6 -21 -10 -46 -43 -72 -64 -93 -137 -250 -185 -278 -252 -86 -215 -43 -41 -32 -33 -39 -53 -124
-6 -15 -14 -26 0 -7 -15 0 0 0 0 0 0 0 0 0 0 0 0 0 0 -38 -41 -73 -84 -69 -37 -8 -5 -5 -35 -16 -54 -47 -94 -129 -172 -189 -193 -128 -16 -37 -66 -60 -52 -46 -102 -32 -37
-20 -5 -7 -5 -29 -58 0 0 0 0 0 0 0 0 0 0 0 0 0 0 0 0 -34 -18 -31 -61 -29 -15 -7 -2 -47 -21 -70 -23 -73 -106 -122 -148 -207 -95 -22 -35 -35 -53 -49 -62 -93 0 0
-15 -25 -29 -19 -21 -12 -14 -7 -1 0 0 -2 0 0 0 0 0 0 0 0 0 0 -22 -63 -15 -49 -34 -19 -6 -1 -46 -13 -24 -51 -55 -79 -74 -78 -76 -105 -61 -69 -95 -146 -179 -202 0 -11 -133
-19 -29 -18 -25 -12 -23 -21 -17 -8 -45 -7 0 -1 0 0 0 0 0 0 0 0 0 -29 -45 -63 -36 -40 -14 -7 -4 -7 -4 -15 -46 -58 -52 -77 -85 -52 -31 -79 -89 -124 -276 0 0 -138 0 -33
-9 -17 -10 -5 -12 -25 -4 -7 -18 -12 -6 0 0 0 0 0 0 0 0 0 0 0 -26 -30 -37 -37 -42 -15 -7 -3 -1 -22 -35 -44 -41 -7 -10 -134 -168 -176 -179 -252 0 0 0 -161 -128 -104 -32
-5 -5 -4 -5 -13 -3 -34 -2 -2 -4 -6 0 0 0 0 0 0 0 0 0 0 -23 -35 -44 -52 -91 -31 -34 -8 -6 -3 -12 -40 -11 -5 -105 -198 -251 -286 -226 -266 -21 -307 -201 -269 0 -9 0 0
-6 -12 -3 -3 -11 -2 -106 -4 0 -14 -19 -8 0 0 0 0 0 0 0 0 0 -24 -33 -21 -25 -42 -16 -26 -58 -6 -8 -11 -16 -4 -74 -195 -308 -306 -333 -159 -256 -245 0 0 0 0 0 0 0
-6 -13 -2 -1 -2 0 -23 -44 -5 -14 -14 0 -3 -12 0 0 0 0 0 0 -1 -9 -28 -21 -2 -24 -18 -51 -92 -111 -91 -18 -56 -92 -118 -271 -262 -203 -177 -242 -242 0 0 0 0 0 0 0 0
-6 -12 -2 -1 -6 -11 -56 -5 0 -24 -16 -7 -8 -2 -2 0 0 0 0 0 -12 -10 -45 -54 0 -5 -20 -8 -31 -31 -49 -13 -112 -23 -170 -273 -214 -340 -1 0 0 0 0 0 0 0 0 0 0
-17 -18 -10 -10 -11 -3 -26 -32 -12 -24 -8 -35 0 -6 -3 0 0 0 0 0 -12 -23 -41 -38 0 -14 -9 -1 -12 -18 -21 -14 -71 -189 -264 -287 -232 0 0 0 0 0 0 0 0 0 0 0 0
-2 -1 -8 -2 -1 -1 -13 -16 -62 -19 -10 0 0 0 -9 -1 0 0 0 -3 -32 -69 -54 -3 -3 -16 -1 -10 -18 -12 -53 -144 -205 -347 -382 -297 0 0 0 0 0 0 0 0 0 0 0 0 0
-3 -4 -8 -2 -1 -4 -3 -20 -6 -37 -42 -22 0 0 -17 -1 0 0 0 -5 -74 -68 -70 -2 -13 -1 -1 -13 -2 -151 -246 -237 -365 -256 0 0 0 0 0 0 0 0 0 0 0 0 0 0 0
-5 -1 -1 -1 -6 -5 -8 -12 -118 -31 -10 -16 0 0 -27 0 0 0 -2 -44 -82 -59 -35 -2 -2 -1 -1 -1 -161 -242 -398 -568 -392 0 0 0 0 0 0 0 0 0 0 0 0 0 0 0 0
Wind_Speed
27 24 23 26 28 29 41 42 40 41 37 25 27 23 21 21 17 16 9 7 14 14 12 10 8 10 10 10 10 10 10 10 12 13 12 13 14 15 15 15 15 16 16 17 16 16 16 16 17
24 22 23 27 36 44 43 36 40 40 36 24 22 23 24 21 13 7 8 9 10 13 12 9 9 8 8 8 9 9 9 9 9 10 11 12 12 13 14 15 16 16 16 16 17 17 17 16 16
21 24 25 27 42 51 46 37 35 30 35 21 21 21 22 16 15 11 8 9 10 10 10 7 7 7 7 7 6 6 7 7 9 9 10 11 12 12 13 15 15 16 16 16 16 16 16 16 15
15 19 24 38 46 39 46 43 41 39 22 19 18 28 15 14 14 8 7 8 8 8 8 8 9 8 7 8 7 6 6 6 7 9 9 10 11 12 12 13 14 15 15 15 16 16 15 15 14
18 22 31 38 43 45 45 37 46 46 38 20 17 28 19 12 10 7 3 4 5 7 4 5 7 7 8 8 10 9 8 8 7 9 9 9 10 11 11 11 12 14 15 15 15 14 14 14 14
23 25 38 41 44 43 40 45 46 43 43 29 27 24 19 8 8 8 5 2 1 4 3 4 5 6 7 7 7 7 7 7 8 8 9 9 10 10 11 11 12 13 14 14 14 14 14 14 13
30 30 41 46 48 46 41 36 41 47 41 36 23 30 15 9 6 6 7 6 5 1 3 3 5 4 4 4 5 6 7 7 7 8 8 9 9 10 10 10 12 12 12 12 13 13 13 13 13
29 37 46 45 46 50 43 42 37 38 50 38 25 31 27 6 4 6 8 5 7 4 2 4 5 4 4 3 3 5 8 11 11 10 10 9 8 8 9 9 10 11 11 11 12 12 12 13 11
28 42 49 47 47 46 40 43 43 38 37 43 33 36 19 10 8 8 6 6 6 7 3 6 7 6 5 3 2 5 6 8 9 10 11 11 9 8 8 9 9 10 10 11 11 12 12 11 10
31 45 48 44 45 45 46 46 44 42 35 35 31 37 26 10 11 11 8 8 7 8 5 7 8 7 6 4 5 5 5 5 10 12 12 11 10 9 8 8 9 9 10 11 10 11 10 11 10
31 47 44 47 46 44 48 49 44 45 47 34 34 40 42 20 18 17 12 10 10 11 7 8 8 8 8 5 6 2 2 5 8 9 10 12 9 9 8 8 9 9 9 10 8 10 9 9 10
35 39 43 46 47 49 49 47 48 44 44 35 31 30 43 43 23 18 20 13 12 11 10 10 10 9 8 7 4 3 2 1 4 5 10 9 7 7 6 7 8 9 9 10 8 8 8 11 15
37 40 41 42 46 48 49 52 49 48 43 38 34 34 37 44 37 31 24 21 14 14 14 14 13 11 10 8 5 4 3 1 1 2 5 6 6 6 8 13 13 10 9 9 11 9 10 14 10
37 41 44 43 43 44 50 54 48 52 45 43 39 38 34 36 36 30 24 30 21 15 17 18 15 13 11 8 5 5 4 4 3 3 3 5 5 6 8 11 10 12 13 13 11 13 12 11 13
34 39 41 43 44 49 44 53 56 54 49 47 44 42 39 36 35 31 27 26 25 15 20 33 17 13 13 9 6 5 3 3 2 3 5 4 5 6 9 8 9 10 11 13 16 15 15 15 18
35 38 45 40 41 45 44 60 56 53 52 53 50 46 43 41 38 32 23 25 28 20 18 10 15 13 13 11 8 6 3 1 0 2 4 3 4 8 6 7 8 11 12 12 14 16 16 19 19
20 33 38 45 41 39 43 56 53 50 53 56 55 52 49 44 45 40 32 30 27 29 18 22 20 16 14 12 10 10 4 2 1 2 4 3 4 6 6 9 10 13 18 20 20 20 21 21 22
24 25 30 39 40 37 38 45 49 43 48 56 54 57 53 51 46 44 39 35 28 27 21 22 20 17 16 14 12 11 6 4 1 2 3 4 5 6 8 12 15 18 18 19 20 20 21 23 25
38 40 43 42 39 41 41 44 48 45 44 49 53 57 53 53 48 42 39 39 30 29 23 23 21 19 18 17 15 11 8 6 2 2 3 5 5 7 7 13 15 18 19 20 21 21 23 24 27
41 40 37 37 41 43 43 46 48 45 48 46 48 52 56 47 49 48 44 36 32 32 27 27 23 22 21 20 16 12 8 6 2 2 3 4 6 9 11 15 15 17 18 19 22 23 22 21 20
35 22 30 36 40 43 46 51 49 47 49 50 49 54 50 52 44 44 47 32 30 33 29 29 25 19 20 20 17 12 9 7 3 1 2 4 8 10 12 16 17 19 21 21 21 20 20 22 18
26 24 30 32 29 46 40 53 47 46 48 52 52 51 52 47 48 40 45 37 29 29 28 27 26 23 22 23 19 15 11 8 5 2 2 6 9 13 15 17 17 18 19 20 20 18 20 22 21
23 34 18 17 18 25 33 39 46 38 50 52 54 51 54 44 45 40 39 40 32 26 25 27 26 26 25 22 16 14 12 8 4 1 3 8 11 13 14 16 16 17 18 18 20 20 21 23 24
17 8 12 15 17 27 23 29 48 45 49 47 51 55 52 46 42 41 35 36 31 26 24 24 27 26 26 22 16 15 14 10 5 1 4 8 10 13 15 15 18 19 18 19 19 19 21 23 24
6 9 7 6 7 20 11 21 33 41 44 50 47 52 50 46 46 45 41 33 30 27 24 22 27 27 28 25 23 18 12 16 5 3 5 8 10 12 14 15 17 18 18 18 19 21 22 25 26
4 5 6 7 6 23 20 27 26 15 34 47 45 51 47 49 50 50 44 36 30 28 26 24 26 27 27 23 19 17 17 10 4 8 6 8 10 13 14 16 16 18 18 19 20 22 23 24 26
13 6 12 16 17 13 12 15 9 14 38 46 48 50 53 53 53 55 47 37 31 29 27 26 27 27 27 23 20 15 12 8 6 8 8 10 12 13 14 15 17 18 19 19 20 22 23 25 27
13 14 10 3 12 8 5 24 27 29 29 39 44 46 53 48 48 52 47 37 33 28 26 27 25 28 27 24 20 16 11 9 6 4 8 11 13 13 13 15 17 18 19 20 21 22 24 26 28
7 5 7 5 4 7 15 18 17 26 27 24 37 34 33 40 49 49 42 34 32 28 27 29 28 30 27 24 21 17 12 7 2 8 8 11 13 13 14 15 17 18 19 20 21 23 26 27 28
16 10 11 6 5 6 17 8 26 27 25 28 27 42 30 37 47 39 36 32 31 30 32 32 32 31 28 24 20 16 9 4 8 8 10 12 13 13 14 16 18 18 20 21 23 25 26 27 27
Wind_Direction
281 282 282 282 274 271 258 251 246 248 257 281 279 284 299 322 322 279 353 360 80 83 101 99 98 100 101 98 92 86 81 75 76 75 70 67 68 69 61 58 57 60 62 62 59 58 55 49 46
284 280 278 278 264 258 258 261 255 253 263 288 286 287 284 315 352 21 24 53 78 85 102 102 106 104 103 100 95 90 83 76 73 72 70 66 67 67 62 63 60 59 60 60 65 66 64 60 62
288 279 274 271 260 255 257 263 264 270 265 279 284 292 286 313 332 332 49 72 73 84 104 105 113 106 103 102 96 89 82 76 75 71 70 70 69 69 69 67 60 58 60 61 59 56 63 69 70
293 286 277 265 260 264 260 261 261 264 284 278 286 271 295 303 320 359 60 78 64 85 105 113 112 107 102 101 97 88 80 72 72 74 71 71 73 75 71 65 56 54 51 54 63 71 71 62 54
281 280 269 268 266 264 263 265 257 258 269 285 276 268 289 301 309 337 1 81 61 83 109 130 120 112 107 104 101 95 87 79 73 75 72 67 73 74 69 60 52 53 61 64 64 56 48 47 47
275 272 267 266 267 265 266 260 258 259 261 277 272 277 286 309 301 303 278 271 13 88 108 143 146 120 113 108 103 94 86 79 79 75 76 72 78 79 77 66 55 61 59 55 51 45 41 40 39
270 267 266 266 264 263 264 267 260 256 263 264 270 269 280 283 289 291 279 255 268 244 106 165 178 140 125 119 106 92 83 77 74 74 72 74 74 75 69 61 59 55 47 47 41 38 38 34 31
270 270 267 266 265 263 265 266 265 261 255 263 271 261 273 276 300 295 273 224 244 232 191 180 187 181 162 132 108 92 86 89 89 83 79 70 66 64 60 58 54 46 41 36 29 31 28 23 27
273 266 264 264 265 267 269 267 266 270 263 256 257 259 278 269 281 288 266 225 204 236 231 201 186 160 144 190 125 94 83 81 80 80 84 83 71 70 60 70 63 44 33 26 27 25 21 21 25
266 264 264 268 269 269 267 265 265 267 268 259 260 252 260 258 262 267 260 231 203 206 224 189 191 165 167 212 122 102 88 77 94 98 95 94 85 82 70 56 50 30 24 22 25 23 23 19 23
271 266 270 269 270 270 269 267 269 263 263 260 258 254 251 255 264 260 253 238 204 205 204 179 187 192 198 155 221 231 90 83 93 93 95 107 86 77 58 44 24 19 23 19 34 24 27 25 15
277 274 272 271 269 269 267 270 264 263 263 267 263 257 250 252 256 256 253 238 220 208 198 188 184 197 208 177 161 192 229 83 75 75 103 97 67 69 47 37 39 33 24 25 26 20 23 17 1
281 278 276 274 270 269 267 264 263 262 263 269 262 267 252 252 257 257 253 252 227 215 211 193 194 202 217 197 199 174 161 220 42 37 90 69 26 31 359 343 357 24 28 25 20 13 19 4 5
286 282 278 275 273 271 265 262 261 257 262 264 262 264 259 253 254 248 246 247 251 219 211 189 189 202 214 209 194 172 143 126 116 75 74 49 40 17 357 353 358 1 2 8 8 1 3 357 356
291 285 281 274 272 268 270 262 255 256 258 259 260 261 256 257 251 256 242 247 250 229 221 187 173 181 210 215 197 210 164 115 110 80 92 36 14 9 357 10 11 7 5 356 351 353 353 354 352
291 285 277 279 277 269 265 259 257 256 254 254 255 256 255 252 251 254 253 241 244 247 222 229 207 201 206 229 225 233 217 196 111 60 70 44 11 0 7 24 16 358 1 3 358 353 350 350 348
300 287 283 279 278 273 264 259 259 259 255 251 251 251 252 252 249 251 256 248 239 245 220 213 215 213 210 228 226 246 206 221 152 88 72 59 39 24 27 11 4 359 352 347 347 347 346 346 344
300 297 294 285 278 284 277 268 260 264 257 251 249 247 249 249 247 247 250 248 241 244 222 218 218 216 213 219 231 244 216 260 279 38 73 61 39 20 5 355 356 352 349 347 349 347 347 346 342
286 281 270 266 253 274 275 273 268 268 258 253 247 246 245 244 246 246 245 246 243 240 226 223 223 217 216 218 221 231 224 252 251 346 80 57 37 20 3 352 355 351 351 349 348 344 341 340 342
264 264 250 252 264 272 271 270 269 268 261 257 249 244 243 243 241 242 244 240 232 236 231 225 228 218 220 218 223 230 211 230 228 77 46 27 28 16 357 348 356 355 357 353 346 347 346 347 348
238 227 238 253 263 265 277 272 270 268 260 258 253 244 244 241 239 238 237 233 227 231 228 225 223 220 219 216 221 226 218 222 234 268 349 10 10 10 8 5 4 357 352 352 354 359 7 5 30
228 226 238 243 245 262 279 270 274 269 258 250 250 241 240 238 237 235 234 235 225 227 222 220 222 222 218 216 228 224 225 215 239 270 3 346 7 14 15 15 12 7 3 3 11 23 19 18 20
231 285 232 248 243 248 240 282 271 272 255 252 243 244 234 240 232 237 231 233 231 216 213 215 215 218 217 218 220 223 220 231 217 4 34 12 20 22 23 24 23 18 18 24 23 18 8 4 2
229 264 248 242 239 237 237 288 272 267 258 251 241 238 231 232 232 235 234 229 217 208 210 213 213 212 213 210 198 222 233 223 211 230 4 17 19 29 30 35 32 31 28 25 22 15 3 357 0
310 232 290 302 244 237 243 295 253 269 259 251 239 235 231 232 230 231 233 223 212 208 206 208 207 205 205 215 222 215 234 228 226 296 74 45 35 39 34 34 28 24 23 14 18 9 7 356 356
251 271 251 319 301 265 324 306 320 237 237 243 243 234 230 230 229 228 230 225 210 208 204 204 201 199 199 206 200 198 195 212 153 126 92 51 44 38 39 32 28 25 13 14 7 7 7 6 1
340 279 227 250 251 271 288 268 277 244 239 234 240 234 230 228 224 224 226 224 206 205 208 202 192 192 189 189 187 188 181 165 128 108 73 63 56 46 39 34 30 15 13 8 13 14 10 7 1
255 232 329 296 329 292 288 337 299 281 239 228 233 239 229 222 218 219 220 218 201 203 204 199 191 185 185 182 182 173 160 142 130 81 66 52 53 48 34 25 23 14 14 10 11 13 10 7 2
309 241 226 305 280 325 247 336 354 278 255 244 230 237 219 211 211 215 214 211 200 199 194 193 186 182 180 178 172 164 154 139 49 84 58 54 52 41 37 30 25 22 22 22 18 13 5 4 4
221 217 211 282 333 233 228 331 311 282 259 239 247 210 218 208 209 206 207 197 194 197 193 190 184 178 176 173 168 158 148 122 112 81 62 56 51 45 39 36 30 28 22 18 15 11 11 9 7